Total_Precipitation_Accumulation
0.74 0.84 1.42 2.04 2.05 1.23 0.82 0.58 0.36 0.35 0.32 0.20 0.12 0.10 0.20 0.46 0.70 0.94 0.76 0.67 0.46 0.40 0.37 0.51 0.64 0.64 0.60 0.57 0.54 0.55 0.50 0.41 0.41 0.42 0.40 0.35 0.31 0.29 0.27 0.27 0.22 0.19 0.19 0.20 0.26 0.32 0.30 0.30 0.40
0.58 1.12 1.84 2.43 1.78 0.97 0.79 0.56 0.47 0.35 0.21 0.14 0.09 0.10 0.13 0.14 0.13 0.33 0.66 0.78 0.51 0.38 0.39 0.50 0.71 0.75 0.70 0.65 0.63 0.75 0.69 0.57 0.51 0.49 0.45 0.38 0.33 0.35 0.40 0.40 0.31 0.25 0.24 0.23 0.28 0.34 0.30 0.32 0.40
0.82 1.59 2.19 2.17 1.26 0.88 0.81 0.63 0.48 0.31 0.17 0.12 0.10 0.09 0.12 0.19 0.24 0.48 0.70 0.63 0.49 0.40 0.42 0.67 0.83 0.76 0.73 0.74 0.86 1.01 0.92 0.82 0.71 0.60 0.52 0.48 0.44 0.45 0.51 0.45 0.41 0.37 0.32 0.30 0.36 0.39 0.34 0.33 0.33
1.08 1.89 2.20 1.76 1.12 0.81 0.70 0.66 0.49 0.31 0.16 0.06 0.07 0.12 0.10 0.13 0.28 0.49 0.57 0.48 0.43 0.44 0.45 0.61 0.76 0.75 0.77 0.82 0.93 1.00 1.03 1.05 0.85 0.70 0.63 0.63 0.60 0.59 0.61 0.59 0.52 0.50 0.46 0.43 0.43 0.40 0.40 0.38 0.37
1.49 1.98 1.94 1.64 1.20 0.87 0.70 0.57 0.49 0.36 0.19 0.07 0.08 0.19 0.17 0.18 0.29 0.46 0.55 0.46 0.40 0.40 0.42 0.48 0.65 0.66 0.71 0.81 0.90 0.92 1.00 1.09 0.95 0.73 0.72 0.75 0.68 0.68 0.71 0.73 0.62 0.58 0.54 0.51 0.51 0.46 0.43 0.41 0.40
1.67 1.80 1.78 1.65 1.33 0.97 0.83 0.53 0.39 0.30 0.19 0.14 0.13 0.22 0.23 0.26 0.40 0.57 0.62 0.69 0.62 0.53 0.48 0.50 0.60 0.65 0.69 0.78 0.90 0.84 0.91 1.02 0.96 0.87 0.81 0.75 0.74 0.77 0.78 0.74 0.69 0.62 0.60 0.57 0.58 0.56 0.49 0.44 0.42
1.57 1.55 1.52 1.17 1.11 1.16 0.88 0.48 0.38 0.33 0.29 0.25 0.17 0.26 0.28 0.28 0.36 0.52 0.60 0.72 0.87 0.90 0.78 0.61 0.53 0.55 0.62 0.73 0.85 0.89 0.90 0.94 0.92 0.98 0.93 0.90 0.87 0.81 0.76 0.73 0.71 0.67 0.66 0.64 0.63 0.58 0.54 0.49 0.44
1.23 1.19 1.09 1.03 1.05 1.09 0.69 0.35 0.24 0.23 0.22 0.19 0.22 0.31 0.32 0.29 0.33 0.43 0.63 0.86 0.92 0.97 0.92 0.79 0.71 0.68 0.68 0.65 0.81 1.02 1.10 1.07 0.98 0.97 0.96 0.96 0.90 0.81 0.75 0.68 0.67 0.70 0.70 0.73 0.73 0.64 0.60 0.54 0.47
1.06 1.10 1.14 1.29 1.22 0.95 0.51 0.32 0.22 0.17 0.15 0.15 0.17 0.19 0.21 0.24 0.34 0.46 0.57 0.66 0.77 0.79 0.80 0.82 0.85 0.88 0.93 0.93 0.92 1.14 1.22 1.15 0.96 0.87 0.90 0.92 0.78 0.80 0.81 0.69 0.80 0.78 0.81 0.83 0.82 0.74 0.68 0.57 0.48
1.10 1.09 1.05 0.92 0.77 0.60 0.42 0.32 0.27 0.26 0.25 0.19 0.19 0.19 0.19 0.23 0.34 0.42 0.49 0.53 0.57 0.64 0.65 0.66 0.69 0.77 0.89 0.97 1.30 1.50 1.30 1.19 0.92 0.91 0.81 0.87 0.94 1.02 0.85 0.78 0.93 0.95 0.98 0.93 0.91 0.90 0.79 0.61 0.44
0.90 0.93 0.69 0.62 0.53 0.36 0.33 0.33 0.27 0.25 0.27 0.20 0.19 0.19 0.21 0.26 0.33 0.39 0.42 0.44 0.47 0.49 0.48 0.48 0.47 0.49 0.58 0.78 1.12 1.41 1.52 1.48 1.40 1.16 0.93 0.94 0.82 0.72 0.67 0.69 0.79 0.86 0.93 0.87 0.88 0.84 0.69 0.59 0.53
0.85 0.64 0.47 0.48 0.37 0.31 0.27 0.22 0.21 0.18 0.19 0.15 0.18 0.19 0.21 0.25 0.29 0.33 0.39 0.41 0.45 0.48 0.48 0.45 0.44 0.41 0.43 0.52 0.69 0.89 1.03 1.12 1.14 0.99 0.88 0.95 0.84 0.74 0.75 0.75 0.75 0.75 0.82 0.90 0.91 0.83 0.70 0.59 0.52
0.82 0.68 0.45 0.35 0.32 0.26 0.20 0.18 0.17 0.15 0.17 0.15 0.20 0.27 0.32 0.36 0.34 0.36 0.39 0.43 0.46 0.52 0.59 0.56 0.47 0.44 0.43 0.47 0.54 0.62 0.77 0.86 0.89 0.91 0.86 0.90 0.90 0.87 0.84 0.77 0.77 0.71 0.77 0.86 0.90 0.82 0.73 0.68 0.61
0.63 0.61 0.57 0.49 0.37 0.26 0.21 0.18 0.17 0.16 0.18 0.19 0.25 0.33 0.39 0.47 0.47 0.48 0.48 0.49 0.49 0.53 0.60 0.65 0.57 0.52 0.48 0.46 0.49 0.54 0.64 0.72 0.76 0.75 0.75 0.85 0.94 0.93 0.89 0.85 0.86 0.83 0.83 0.94 0.92 0.80 0.80 0.78 0.68
0.58 0.61 0.54 0.46 0.42 0.36 0.30 0.26 0.19 0.19 0.22 0.25 0.28 0.32 0.38 0.46 0.51 0.54 0.54 0.51 0.51 0.53 0.56 0.59 0.60 0.60 0.59 0.57 0.56 0.56 0.63 0.73 0.75 0.72 0.67 0.69 0.78 0.83 0.86 0.87 0.87 0.91 0.99 1.04 1.05 0.86 0.82 0.74 0.65
0.64 0.74 0.76 0.49 0.49 0.49 0.45 0.35 0.21 0.21 0.22 0.24 0.26 0.29 0.34 0.37 0.42 0.48 0.50 0.47 0.47 0.46 0.47 0.52 0.54 0.59 0.65 0.68 0.69 0.71 0.71 0.78 0.75 0.74 0.68 0.63 0.68 0.76 0.90 0.90 0.88 0.90 1.02 1.10 1.12 1.00 0.90 0.78 0.72
0.65 0.64 0.61 0.50 0.42 0.43 0.37 0.28 0.23 0.23 0.21 0.22 0.24 0.23 0.24 0.27 0.31 0.36 0.39 0.41 0.42 0.41 0.41 0.44 0.48 0.51 0.62 0.70 0.73 0.82 0.84 0.86 0.83 0.82 0.74 0.71 0.76 0.83 1.00 1.10 1.11 1.11 1.11 1.09 1.03 1.05 0.99 0.88 0.84
0.55 0.41 0.36 0.34 0.29 0.29 0.25 0.22 0.19 0.19 0.17 0.17 0.17 0.18 0.19 0.19 0.23 0.27 0.28 0.29 0.30 0.32 0.34 0.38 0.43 0.45 0.53 0.68 0.80 0.96 1.07 1.04 1.06 1.00 0.89 0.91 1.05 1.18 1.32 1.31 1.38 1.44 1.31 1.24 1.16 1.16 1.10 0.98 0.95
0.36 0.28 0.25 0.23 0.21 0.20 0.17 0.16 0.17 0.16 0.15 0.14 0.13 0.14 0.15 0.14 0.14 0.16 0.19 0.22 0.22 0.22 0.25 0.31 0.34 0.42 0.50 0.58 0.73 0.95 1.22 1.33 1.43 1.39 1.21 1.16 1.28 1.52 1.72 1.68 1.71 1.72 1.57 1.50 1.57 1.72 1.65 1.37 1.13
0.34 0.29 0.23 0.22 0.16 0.12 0.11 0.11 0.11 0.13 0.14 0.14 0.13 0.12 0.12 0.11 0.10 0.09 0.10 0.13 0.15 0.15 0.17 0.22 0.30 0.39 0.48 0.57 0.75 0.91 1.06 1.07 1.24 1.40 1.38 1.30 1.29 1.43 1.57 1.81 1.88 1.79 1.78 1.89 1.93 2.19 2.29 1.87 1.47
0.30 0.26 0.25 0.26 0.17 0.10 0.09 0.10 0.09 0.10 0.12 0.13 0.13 0.12 0.12 0.11 0.09 0.07 0.07 0.08 0.09 0.10 0.12 0.15 0.22 0.32 0.45 0.61 0.85 1.07 1.26 1.34 1.41 1.34 1.43 1.44 1.37 1.41 1.50 1.66 1.80 1.79 1.85 1.90 2.01 2.33 2.71 2.44 1.96
0.23 0.17 0.14 0.18 0.23 0.21 0.18 0.21 0.14 0.15 0.19 0.20 0.20 0.17 0.15 0.13 0.10 0.08 0.06 0.07 0.07 0.08 0.09 0.12 0.20 0.35 0.56 0.78 1.04 1.30 1.50 1.54 1.43 1.48 1.51 1.39 1.33 1.30 1.37 1.50 1.63 1.73 1.75 1.86 1.93 2.04 2.47 2.73 2.42
0.17 0.11 0.07 0.10 0.15 0.12 0.11 0.18 0.16 0.22 0.30 0.32 0.30 0.26 0.20 0.16 0.14 0.12 0.11 0.12 0.13 0.14 0.16 0.23 0.43 0.68 0.93 1.14 1.41 1.70 1.70 1.59 1.50 1.50 1.47 1.42 1.43 1.40 1.39 1.52 1.58 1.59 1.65 1.74 2.03 2.27 2.51 2.65 2.56
0.12 0.08 0.08 0.10 0.13 0.09 0.06 0.14 0.24 0.29 0.33 0.37 0.36 0.30 0.23 0.19 0.22 0.27 0.31 0.37 0.41 0.44 0.58 0.79 1.05 1.24 1.33 1.46 1.61 1.73 1.71 1.72 1.67 1.49 1.39 1.39 1.43 1.49 1.53 1.59 1.58 1.54 1.57 1.66 1.86 2.12 2.33 2.59 2.72
0.06 0.08 0.14 0.16 0.17 0.14 0.12 0.27 0.38 0.34 0.29 0.29 0.30 0.25 0.20 0.24 0.34 0.45 0.61 0.74 0.84 0.96 1.08 1.22 1.42 1.56 1.50 1.47 1.52 1.56 1.57 1.57 1.56 1.50 1.40 1.35 1.35 1.37 1.41 1.52 1.63 1.70 1.71 1.81 1.95 2.09 2.00 2.21 2.53
0.04 0.09 0.24 0.30 0.25 0.24 0.28 0.47 0.52 0.41 0.31 0.22 0.17 0.16 0.24 0.38 0.52 0.63 0.72 0.83 1.00 1.14 1.19 1.19 1.30 1.40 1.36 1.33 1.31 1.28 1.34 1.37 1.34 1.26 1.25 1.28 1.35 1.33 1.27 1.32 1.42 1.56 1.70 1.74 1.78 1.79 1.73 1.85 2.05
0.05 0.07 0.15 0.28 0.24 0.24 0.36 0.61 0.57 0.37 0.31 0.25 0.22 0.25 0.38 0.58 0.79 0.94 1.04 1.17 1.21 1.25 1.30 1.22 1.21 1.25 1.25 1.17 1.09 1.09 1.15 1.20 1.23 1.18 1.19 1.17 1.16 1.09 1.02 1.02 1.06 1.13 1.20 1.26 1.42 1.52 1.60 1.61 1.72
0.09 0.16 0.25 0.43 0.47 0.47 0.55 0.66 0.58 0.46 0.43 0.45 0.52 0.61 0.67 0.78 1.03 1.32 1.57 1.74 1.57 1.30 1.18 1.13 1.06 1.06 1.14 1.11 1.04 1.01 1.10 1.11 1.10 1.13 1.10 1.10 1.09 1.00 0.93 0.89 0.85 0.81 0.78 0.81 1.00 1.19 1.30 1.40 1.54
0.15 0.26 0.34 0.46 0.56 0.71 0.89 0.99 0.84 0.86 0.88 0.95 1.06 1.10 1.10 1.21 1.19 1.34 1.53 1.70 1.60 1.28 1.05 1.05 1.06 1.01 0.99 0.99 1.01 1.00 0.99 0.90 0.89 0.94 0.95 0.94 0.95 0.98 0.96 0.88 0.82 0.89 0.87 0.82 0.88 0.94 1.00 1.08 1.21
0.28 0.38 0.52 0.69 0.64 0.69 0.90 1.06 0.95 0.94 0.96 1.05 1.23 1.30 1.29 1.20 1.10 1.09 1.13 1.20 1.21 1.06 0.87 0.83 0.96 1.01 0.95 0.92 0.95 0.94 0.85 0.81 0.77 0.76 0.73 0.66 0.64 0.67 0.75 0.83 0.78 0.77 0.79 0.80 0.86 0.88 0.92 0.94 1.02